Time,TemperatureF,DewpointF,PressureIn,WindDirection,WindDirectionDegrees,WindSpeedMPH,WindSpeedGustMPH,Humidity,HourlyPrecipIn,Conditions,Clouds,dailyrainin,SoftwareType,DateUTC
2013-09-26 00:03:00,49.0,48.0,-100.00,ENE,70,3.0,4.0,96,-99.99,,,-99.99,,2013-09-26 05:03:00,
2013-09-26 00:43:00,49.0,48.0,-100.00,ENE,65,3.0,4.0,96,-99.99,,,-99.99,,2013-09-26 05:43:00,
2013-09-26 00:52:00,49.0,48.0,-100.00,ENE,65,3.0,4.0,96,-99.99,,,-99.99,,2013-09-26 05:52:00,
2013-09-26 01:02:00,49.0,48.0,-100.00,ENE,65,3.0,4.0,96,-99.99,,,-99.99,,2013-09-26 06:02:00,
2013-09-26 01:11:00,45.0,44.0,-100.00,NE,40,1.0,2.0,97,-99.99,,,-99.99,,2013-09-26 06:11:00,
2013-09-26 01:42:00,45.0,44.0,-100.00,NE,40,1.0,2.0,97,-99.99,,,-99.99,,2013-09-26 06:42:00,
2013-09-26 01:53:00,45.0,44.0,-100.00,NE,40,1.0,2.0,97,-99.99,,,-99.99,,2013-09-26 06:53:00,
2013-09-26 02:02:00,45.0,44.0,-100.00,NE,40,1.0,2.0,97,-99.99,,,-99.99,,2013-09-26 07:02:00,
2013-09-26 02:42:00,43.0,42.0,-100.00,NNE,15,1.0,2.0,97,-99.99,,,-99.99,,2013-09-26 07:42:00,
2013-09-26 02:53:00,43.0,42.0,-100.00,NNE,15,1.0,2.0,97,-99.99,,,-99.99,,2013-09-26 07:53:00,
2013-09-26 03:03:00,43.0,42.0,-100.00,NNE,15,1.0,2.0,97,-99.99,,,-99.99,,2013-09-26 08:03:00,
2013-09-26 03:42:00,43.0,42.0,-100.00,NW,305,0.0,4.0,97,-99.99,,,-99.99,,2013-09-26 08:42:00,
2013-09-26 03:52:00,43.0,42.0,-100.00,NW,305,0.0,4.0,97,-99.99,,,-99.99,,2013-09-26 08:52:00,
2013-09-26 04:02:00,43.0,42.0,-100.00,NW,305,0.0,4.0,97,-99.99,,,-99.99,,2013-09-26 09:02:00,
2013-09-26 04:43:00,41.0,41.0,-100.00,ENE,70,3.0,4.0,98,-99.99,,,-99.99,,2013-09-26 09:43:00,
2013-09-26 04:54:00,41.0,41.0,-100.00,ENE,70,3.0,4.0,98,-99.99,,,-99.99,,2013-09-26 09:54:00,
2013-09-26 05:03:00,41.0,41.0,-100.00,ENE,70,3.0,4.0,98,-99.99,,,-99.99,,2013-09-26 10:03:00,
2013-09-26 05:42:00,41.0,40.0,-100.00,ENE,70,1.0,2.0,98,-99.99,,,-99.99,,2013-09-26 10:42:00,
2013-09-26 05:53:00,41.0,40.0,-100.00,ENE,70,1.0,2.0,98,-99.99,,,-99.99,,2013-09-26 10:53:00,
2013-09-26 06:02:00,41.0,40.0,-100.00,ENE,70,1.0,2.0,98,-99.99,,,-99.99,,2013-09-26 11:02:00,
2013-09-26 06:10:00,45.0,44.0,-100.00,East,80,2.0,6.0,98,-99.99,,,-99.99,,2013-09-26 11:10:00,
2013-09-26 06:42:00,45.0,44.0,-100.00,East,80,2.0,6.0,98,-99.99,,,-99.99,,2013-09-26 11:42:00,
2013-09-26 06:52:00,45.0,44.0,-100.00,East,80,2.0,6.0,98,-99.99,,,-99.99,,2013-09-26 11:52:00,
2013-09-26 07:02:00,45.0,44.0,-100.00,East,80,2.0,6.0,98,-99.99,,,-99.99,,2013-09-26 12:02:00,
2013-09-26 07:42:00,46.0,45.0,-100.00,ENE,75,4.0,6.0,98,-99.99,,,-99.99,,2013-09-26 12:42:00,
2013-09-26 07:52:00,46.0,45.0,-100.00,ENE,75,4.0,6.0,98,-99.99,,,-99.99,,2013-09-26 12:52:00,
2013-09-26 08:02:00,46.0,45.0,-100.00,ENE,75,4.0,6.0,98,-99.99,,,-99.99,,2013-09-26 13:02:00,
2013-09-26 08:11:00,46.0,45.0,-100.00,ENE,75,4.0,6.0,98,-99.99,,,-99.99,,2013-09-26 13:11:00,
2013-09-26 08:42:00,49.0,48.0,-100.00,SSE,165,1.0,6.0,98,-99.99,,,-99.99,,2013-09-26 13:42:00,
2013-09-26 08:52:00,49.0,48.0,-100.00,SSE,165,1.0,6.0,98,-99.99,,,-99.99,,2013-09-26 13:52:00,
2013-09-26 09:02:00,49.0,48.0,-100.00,SSE,165,1.0,6.0,98,-99.99,,,-99.99,,2013-09-26 14:02:00,
2013-09-26 09:11:00,52.0,52.0,-100.00,East,100,4.0,9.0,98,-99.99,,,-99.99,,2013-09-26 14:11:00,
2013-09-26 09:42:00,52.0,52.0,-100.00,East,100,4.0,9.0,98,-99.99,,,-99.99,,2013-09-26 14:42:00,
2013-09-26 09:52:00,52.0,52.0,-100.00,East,100,4.0,9.0,98,-99.99,,,-99.99,,2013-09-26 14:52:00,
2013-09-26 10:02:00,52.0,52.0,-100.00,East,100,4.0,9.0,98,-99.99,,,-99.99,,2013-09-26 15:02:00,
2013-09-26 10:44:00,55.0,54.0,-100.00,ESE,105,4.0,9.0,98,-99.99,,,-99.99,,2013-09-26 15:44:00,
2013-09-26 10:54:00,55.0,54.0,-100.00,ESE,105,4.0,9.0,98,-99.99,,,-99.99,,2013-09-26 15:54:00,
2013-09-26 11:04:00,55.0,54.0,-100.00,ESE,105,4.0,9.0,98,-99.99,,,-99.99,,2013-09-26 16:04:00,
2013-09-26 11:43:00,57.0,56.0,-100.00,East,95,4.0,9.0,98,-99.99,,,-99.99,,2013-09-26 16:43:00,
2013-09-26 11:53:00,57.0,56.0,-100.00,East,95,4.0,9.0,98,-99.99,,,-99.99,,2013-09-26 16:53:00,
2013-09-26 12:04:00,57.0,56.0,-100.00,East,95,4.0,9.0,98,-99.99,,,-99.99,,2013-09-26 17:04:00,
2013-09-26 12:43:00,66.0,57.0,-100.00,South,175,7.0,9.0,73,-99.99,,,-99.99,,2013-09-26 17:43:00,
2013-09-26 12:52:00,66.0,57.0,-100.00,South,175,7.0,9.0,73,-99.99,,,-99.99,,2013-09-26 17:52:00,
2013-09-26 13:02:00,66.0,57.0,-100.00,South,175,7.0,9.0,73,-99.99,,,-99.99,,2013-09-26 18:02:00,
2013-09-26 13:42:00,70.0,48.0,-100.00,SE,140,8.0,16.0,45,-99.99,,,-99.99,,2013-09-26 18:42:00,
2013-09-26 13:52:00,70.0,48.0,-100.00,SE,140,8.0,16.0,45,-99.99,,,-99.99,,2013-09-26 18:52:00,
2013-09-26 14:03:00,70.0,48.0,-100.00,SE,140,8.0,16.0,45,-99.99,,,-99.99,,2013-09-26 19:03:00,
2013-09-26 14:11:00,73.0,45.0,-100.00,South,185,11.0,15.0,36,-99.99,,,-99.99,,2013-09-26 19:11:00,
2013-09-26 14:44:00,73.0,45.0,-100.00,South,185,11.0,15.0,36,-99.99,,,-99.99,,2013-09-26 19:44:00,
2013-09-26 14:52:00,73.0,45.0,-100.00,South,185,11.0,15.0,36,-99.99,,,-99.99,,2013-09-26 19:52:00,
2013-09-26 15:03:00,73.0,45.0,-100.00,South,185,11.0,15.0,36,-99.99,,,-99.99,,2013-09-26 20:03:00,
2013-09-26 15:10:00,75.0,44.0,-100.00,SSE,160,4.0,14.0,33,-99.99,,,-99.99,,2013-09-26 20:10:00,
2013-09-26 15:43:00,75.0,44.0,-100.00,SSE,160,4.0,14.0,33,-99.99,,,-99.99,,2013-09-26 20:43:00,
2013-09-26 15:52:00,75.0,44.0,-100.00,SSE,160,4.0,14.0,33,-99.99,,,-99.99,,2013-09-26 20:52:00,
2013-09-26 16:02:00,75.0,44.0,-100.00,SSE,160,4.0,14.0,33,-99.99,,,-99.99,,2013-09-26 21:02:00,
2013-09-26 16:11:00,75.0,44.0,-100.00,SE,140,9.0,16.0,34,-99.99,,,-99.99,,2013-09-26 21:11:00,
2013-09-26 16:44:00,75.0,44.0,-100.00,SE,140,9.0,16.0,34,-99.99,,,-99.99,,2013-09-26 21:44:00,
2013-09-26 16:54:00,75.0,44.0,-100.00,SE,140,9.0,16.0,34,-99.99,,,-99.99,,2013-09-26 21:54:00,
2013-09-26 17:04:00,75.0,44.0,-100.00,SE,140,9.0,16.0,34,-99.99,,,-99.99,,2013-09-26 22:04:00,
2013-09-26 17:43:00,75.0,46.0,-100.00,SSE,150,6.0,13.0,36,-99.99,,,-99.99,,2013-09-26 22:43:00,
2013-09-26 17:54:00,75.0,46.0,-100.00,SSE,150,6.0,13.0,36,-99.99,,,-99.99,,2013-09-26 22:54:00,
2013-09-26 18:03:00,75.0,46.0,-100.00,SSE,150,6.0,13.0,36,-99.99,,,-99.99,,2013-09-26 23:03:00,
2013-09-26 18:12:00,75.0,46.0,-100.00,SSE,150,6.0,13.0,36,-99.99,,,-99.99,,2013-09-26 23:12:00,
2013-09-26 18:43:00,72.0,46.0,-100.00,SE,140,2.0,7.0,39,-99.99,,,-99.99,,2013-09-26 23:43:00,
2013-09-26 18:53:00,72.0,46.0,-100.00,SE,140,2.0,7.0,39,-99.99,,,-99.99,,2013-09-26 23:53:00,
2013-09-26 19:02:00,72.0,46.0,-100.00,SE,140,2.0,7.0,39,-99.99,,,-99.99,,2013-09-27 00:02:00,
2013-09-26 19:11:00,64.0,49.0,-100.00,East,90,2.0,5.0,58,-99.99,,,-99.99,,2013-09-27 00:11:00,
2013-09-26 19:43:00,64.0,49.0,-100.00,East,90,2.0,5.0,58,-99.99,,,-99.99,,2013-09-27 00:43:00,
2013-09-26 19:52:00,64.0,49.0,-100.00,East,90,2.0,5.0,58,-99.99,,,-99.99,,2013-09-27 00:52:00,
2013-09-26 20:01:00,64.0,49.0,-100.00,East,90,2.0,5.0,58,-99.99,,,-99.99,,2013-09-27 01:01:00,
2013-09-26 20:10:00,61.0,51.0,-100.00,ENE,65,1.0,4.0,71,-99.99,,,-99.99,,2013-09-27 01:10:00,
2013-09-26 20:42:00,61.0,51.0,-100.00,ENE,65,1.0,4.0,71,-99.99,,,-99.99,,2013-09-27 01:42:00,
2013-09-26 20:52:00,61.0,51.0,-100.00,ENE,65,1.0,4.0,71,-99.99,,,-99.99,,2013-09-27 01:52:00,
2013-09-26 21:02:00,61.0,51.0,-100.00,ENE,65,1.0,4.0,71,-99.99,,,-99.99,,2013-09-27 02:02:00,
2013-09-26 21:43:00,60.0,52.0,-100.00,East,80,3.0,7.0,75,-99.99,,,-99.99,,2013-09-27 02:43:00,
2013-09-26 21:53:00,60.0,52.0,-100.00,East,80,3.0,7.0,75,-99.99,,,-99.99,,2013-09-27 02:53:00,
2013-09-26 22:02:00,60.0,52.0,-100.00,East,80,3.0,7.0,75,-99.99,,,-99.99,,2013-09-27 03:02:00,
2013-09-26 22:11:00,62.0,51.0,-100.00,ESE,105,5.0,11.0,68,-99.99,,,-99.99,,2013-09-27 03:11:00,
2013-09-26 22:45:00,62.0,51.0,-100.00,ESE,105,5.0,11.0,68,-99.99,,,-99.99,,2013-09-27 03:45:00,
2013-09-26 22:55:00,62.0,51.0,-100.00,ESE,105,5.0,11.0,68,-99.99,,,-99.99,,2013-09-27 03:55:00,
2013-09-26 23:05:00,62.0,51.0,-100.00,ESE,105,5.0,11.0,68,-99.99,,,-99.99,,2013-09-27 04:05:00,
2013-09-26 23:11:00,60.0,51.0,-100.00,ESE,110,4.0,9.0,72,-99.99,,,-99.99,,2013-09-27 04:11:00,
2013-09-26 23:44:00,60.0,51.0,-100.00,ESE,110,4.0,9.0,72,-99.99,,,-99.99,,2013-09-27 04:44:00,
2013-09-26 23:54:00,60.0,51.0,-100.00,ESE,110,4.0,9.0,72,-99.99,,,-99.99,,2013-09-27 04:54:00,